www.pogodaiklimat.ru

Погода и климат >> Архив погоды >> Россия >> Камчатский край >> Петропавловск-Камч. 2


ПОГОДА в Петропавловск-Камч. 2

  • Прогноз погоды в Петропавловск-Камч. 2
  • Монитор погоды в Петропавловск-Камч. 2

АРХИВ ПОГОДЫ в Петропавловск-Камч. 2

Время (UTC), дата Ветер
(напр.,м/с)
 
Видим.   Явления Облачность Т
(С)
Тd
(С)
f
(%)
Тe
(С)
Тes
(С)
Комфортность P
(гПа)
Po
(гПа)
Тmin
(С)
Tmax
(С)
R
(мм)
R24
(мм)
S
(см)
18 16.07 С 1 20 км ясно +13.4 +10.8 84 +14 +14 1013.1 1003.1
21 16.07 СЗ 1 50 км ясно +18.2 +12.6 70 +20 +26 1013.1 1003.3 +13.0
00 17.07 Ю 3 20 км 1/1 600 м
[Cu hum]
+20.6 +14.2 67 +24 +34 комфорт 1012.5 1002.8
03 17.07 Ю 3 20 км 1/1 600 м
[Cu hum]
+21.2 +14.6 66 +24 +35 комфорт 1011.8 1002.1
06 17.07 В 4 20 км ясно +20.8 +12.8 60 +23 +27 комфорт 1011.5 1001.8
09 17.07 ЮВ 2 20 км ясно +14.7 +11.4 81 +14 +14 1012.7 1002.7 +23.4
12 17.07 штиль 0 20 км 3/3 300 м
[St]
+11.4 +9.9 90 +11 +11 1013.9 1003.8
15 17.07 штиль 0 200 м туман ?/? +11.3 +10.2 93 +11 +11 1014.1 1004.0
18 17.07 штиль 0 200 м туман ?/? +9.9 +8.9 93 +9 +9 1014.0 1003.8
21 17.07 З 1 20 км туман на расстоянии 3/1 300 м
[St Ci fib]
+14.1 +11.9 87 +14 +20 1014.0 1004.0 +9.9
00 18.07 Ю 2 20 км {туман} 8/0
[Ci fib]
+16.5 +12.4 77 +17 +29 опасность
простуды
1013.5 1003.6
06 18.07 Ю 1 50 км 10/0
[Ci]
+21.2 +12.0 56 +23 +28 комфорт 1013.0 1003.2
09 18.07 СЗ 1 50 км 8/1 600 м
[Sc Ac trans Ci fib]
+19.7 +10.8 56 +22 +22 комфорт 1014.0 1004.2 +22.7
12 18.07 СЗ 1 20 км 9/0
[Ci fib]
+15.7 +11.5 76 +16 +16 1015.6 1005.6
15 18.07 СЗ 1 50 км 6/1 600 м
[Sc Ci fib]
+15.4 +11.8 79 +16 +16 1016.3 1006.3
18 18.07 С 1 50 км 3/1 600 м
[Sc Ci fib]
+15.7 +11.8 78 +16 +16 1017.2 1007.2
21 18.07 СЗ 2 50 км 3/1 1000 м
[Sc Ci fib]
+19.7 +13.4 67 +22 +27 комфорт 1017.9 1008.0 +14.7
00 19.07 С 2 50 км 4/3 600 м
[Cu Sc Ci fib]
+23.5 +12.4 50 +25 +35 комфорт 1017.8 1008.1
03 19.07 Ю 2 50 км 3/3 600 м
[Cu Sc Ci fib]
+24.2 +13.7 52 +26 +36 жарко 1017.4 1007.7
06 19.07 ЮЗ 2 50 км 3/1 1000 м
[Sc Ci fib]
+25.1 +13.7 49 +27 +32 жарко 1017.2 1007.5
09 19.07 З 1 50 км 1/0
[Ci fib]
+21.1 +12.7 59 +23 +23 комфорт 1018.8 1009.0 +26.3
12 19.07 С 1 20 км ясно +17.9 +12.6 71 +19 +19 1020.3 1010.4
15 19.07 С 1 50 км 5/0
[Ci fib]
+16.2 +12.3 78 +17 +17 1020.3 1010.3
18 19.07 С 2 50 км 8/0
[Ac As Ci fib]
+16.3 +12.1 76 +16 +17 1020.4 1010.4
21 19.07 СЗ 2 50 км 9/0
[Ac und]
+18.4 +12.1 67 +19 +21 1020.9 1011.0 +15.8
00 20.07 СЗ 2 20 км 9/3 1000 м
[Sc Ac As]
+20.4 +12.9 62 +23 +27 комфорт 1020.6 1010.7
03 20.07 З 1 50 км 9/3 1000 м
[Sc Ac trans]
+21.9 +13.8 60 +25 +30 комфорт 1020.1 1010.3
06 20.07 С 1 50 км 9/3 1000 м
[Sc Ac trans]
+19.9 +13.9 68 +23 +25 комфорт 1019.8 1009.9
09 20.07 СЗ 1 50 км {ливн. осадки} 9/8 600 м
[Cb calv Ac lent]
+18.3 +13.5 74 +20 +20 1019.7 1009.8 +22.0
12 20.07 СЗ 1 20 км слаб. ливневой дождь 10/6 600 м
[Cb cap Ac trans Ci fib]
+16.9 +12.6 76 +18 +18 1019.6 1009.6
15 20.07 СЗ 1 50 км {ливн. осадки} 8/3 600 м
[Sc Ac trans Ci fib]
+15.8 +12.3 80 +16 +16 1018.7 1008.7
18 20.07 С 2 50 км {ливн. осадки} 9/6 600 м
[Cb calv Ac trans]
+17.0 +11.9 72 +17 +17 1018.1 1008.1
21 20.07 С 2 50 км 8/3 600 м
[Sc Ac trans]
+18.3 +12.3 68 +19 +21 1017.8 1007.9 +15.7 0.0
00 21.07 СЗ 2 20 км 8/5 600 м
[Sc Ac trans]
+20.0 +12.6 62 +22 +27 комфорт 1016.4 1006.6
03 21.07 СЗ 1 20 км слаб. ливневой дождь 9/6 600 м
[Cb cap Ac trans]
+20.0 +14.8 72 +23 +27 комфорт 1014.7 1004.9
06 21.07 З 1 50 км {ливн. осадки} 10/3 600 м
[Cu Sc Ac As]
+19.3 +11.8 62 +22 +23 комфорт 1013.7 1003.9
09 21.07 СЗ 1 50 км 10/5 600 м
[Cb calv Ac trans]
+17.0 +10.0 63 +18 +18 1012.5 1002.6 +22.5 0.5
12 21.07 З 2 20 км {ливн. осадки} 10/3 1000 м
[Sc Ac trans]
+15.6 +10.2 70 +16 +16 1012.0 1002.1
15 21.07 СЗ 1 20 км 10/4 1000 м
[Sc Ac trans]
+14.5 +8.6 68 +15 +15 1011.4 1001.4
18 21.07 С 1 20 км слаб. ливневой дождь 10/6 600 м
[Cb cap Ac trans]
+12.1 +8.8 80 +12 +12 1011.9 1001.8
21 21.07 СЗ 1 50 км {ливн. осадки} 10/8 600 м
[Cb cap Ac trans]
+13.3 +8.3 72 +14 +14 1011.7 1001.7 +12.0 0.3
00 22.07 СЗ 1 50 км {ливн. осадки} 1/1 1000 м
[Sc diur, vesp]
+18.9 +10.4 58 +21 +36 комфорт 1010.0 1000.1
03 22.07 Ю 2 50 км 3/3 1000 м
[Sc diur, vesp]
+21.5 +11.0 51 +23 +33 комфорт 1008.2 998.5
06 22.07 Ю 3 50 км 1/1 1000 м
[Sc diur, vesp]
+19.5 +11.4 59 +21 +25 комфорт 1007.9 998.1
09 22.07 В 3 50 км 3/1 600 м
[Sc Ci fib]
+16.5 +10.2 66 +16 +16 1008.8 998.9 +21.7
12 22.07 С 1 20 км 6/0
[Ci fib]
+12.5 +9.8 84 +13 +13 1009.7 999.7
15 22.07 СЗ 1 20 км 10/0
[Cs]
+11.2 +8.9 86 +11 +11 1009.7 999.6
18 22.07 С 1 50 км 10/0
[Cs]
+11.9 +8.0 77 +12 +12 1009.7 999.6
21 22.07 С 1 50 км 10/0
[Ac trans Cs]
+14.0 +8.8 71 +14 +18 1009.7 999.7 +11.0
00 23.07 СЗ 1 50 км 10/0
[Ac trans Cs]
+16.8 +9.0 60 +18 +26 1009.2 999.4
09 23.07 З 1 50 км {ливн. осадки} 10/5 600 м
[Sc Ac und]
+14.8 +9.3 70 +15 +15 1009.5 999.5 +17.7 0.2
12 23.07 С 1 20 км слаб. ливневой дождь 10/10 600 м
[Cb cap]
+13.5 +9.1 75 +14 +14 1010.2 1000.2

 

Местоположение метеостанции Петропавловск-Камч. 2 (Камчатский край, Россия): широта 53.08 долгота 158.50 высота над уровнем моря 84 м.

В архиве по умолчанию представлена погода в Петропавловск-Камч. 2 за последнюю неделю. Архивные данные за месяц целиком и за предыдущие месяцы, начиная с января 2011 года, Вы можете получить, выбрав интересующий диапазон дат из раскрывающегося списка и нажав кнопку "Ввод!".


*Определитесь, кто Вы:
робот инопланетянин человек

Внимание! Время в таблицах - всемирное. Для получения местного времени необходимо прибавить поправку, которая равна 12 ч.

Смотрите также архив погоды в соседних городах и на ближайших метеорологических станциях:

Погода в Сосновке (Камчатский край, Россия) (13 км)
Погода в Петропавловск-Камчатском (Камчатский край, Россия) (24 км)
Погода в Петропавловском Маяке (Камчатский край, Россия) (26 км)
Погода в Начиках (Камчатский край, Россия) (54 км)
Погода в Пущино (Камчатский край, Россия) (127 км)
Погода в Водопадной (Камчатский край, Россия) (144 км)
Погода в Семячике (Камчатский край, Россия) (148 км)
Погода в Большерецке (Камчатский край, Россия) (150 км)
Погода в Мильково (Камчатский край, Россия) (178 км)
Погода в Соболево (Камчатский край, Россия) (218 км)

Пояснения к столбцам:

Ветер - указаны скорость ветра в м/с - средняя за 10 мин, порывы в срок и между сроками (в фигурных скобках) и направление, откуда дует ветер: С - северный, СВ - северо-восточный, В - восточный, ЮВ - юго-восточный, Ю - южный, ЮЗ - юго-западный, З - западный, СЗ - северо-западный.
Видимость - горизонтальная дальность видимости в метрах или километрах. При видимости от 1 до 10 км при отсутствии осадков обычно наблюдается дымка, при ухудшении видимости до 1 км и менее - туман. В сухую погоду видимость может ухудшаться дымом, пылью или мглою.
Явления - указаны атмосферные явления, наблюдавшиеся в срок или в последний час перед сроком; фигурными скобками обозначены явления, наблюдавшиеся между сроками (за 1-3 часа до срока); квадратными скобками обозначены град или гололедные отложения с указанием их диаметра в мм.
Облачность - указаны через наклонную черту общая и нижняя облачность в баллах и высота нижней границы облаков в метрах; квадратными скобками обозначены формы облаков: Ci - перистые, Cs - перисто-слоистые, Cc - перисто-кучевые, Ac - высококучевые, As - высокослоистые, Sc - слоисто-кучевые, Ns - слоисто-дождевые, Cu - кучевые, Cb - кучево-дождевые. Подробнее классификацию облаков см. в Атласе облаков (PDF).
T - Температура воздуха - температура, измеренная на высоте 2 м над землей.
Td - Температура точки росы - температура, при понижении до которой содержащийся в воздухе водяной пар достигнет насыщения.
f - Относительная влажность воздуха - влажноcть воздуха, измеренная на высоте 2 м над землей.
Te - Эффективная температура - температура, которую ощущает одетый по сезону человек в тени. Характеристика душности погоды. При расчете учитывается влияние влажности воздуха и скорости ветра на теплоощущения человека.
Tes - Эффективная температура на солнце - температура, которую ощущает человек, с поправкой на солнечный нагрев. Характеристика знойности погоды. Зависит от высоты солнца над горизонтом, облачности и скорости ветра. Ночью, в пасмурную погоду, а также при ветре 12 м/с и более поправка равна нулю.
P - Атмосферное давление - приведенное к уровню моря атмосферное давление.
Po - Атмосферное давление - измеренное на уровне метеостанции атмосферное давление.
Tmin - Минимальная температура - минимум температуры воздуха на высоте 2 м над землей.
Tmax - Максимальная температура - максимум температуры воздуха на высоте 2 м над землей.
R - Количество осадков - Количество выпавших осадков за период времени, мм. При наведении курсора мыши на число - период времени, за который выпало указанное количество осадков.
R24 - Количество осадков - Количество выпавших осадков за 24 часа, мм.
S - Снежный покров - Высота снежного покрова, см. При наведении курсора мыши на число - состояние снежного покрова и степень покрытия местности в баллах.